Theta_e
318 319 319 319 320 320 320 320 321 321 321 320 320 320 321 321 321 321 321 321 320 320 320 321 321 323 323 325 328 333 340 347 352 351 351 350 350 350 350 349 348 348 346 341
320 319 319 319 320 319 319 319 320 320 320 320 321 321 321 321 322 321 321 321 321 321 321 320 320 321 322 324 326 329 333 341 347 350 350 349 349 349 349 349 348 346 346 342
319 320 318 318 318 318 318 319 319 319 320 320 320 320 320 321 320 320 320 320 320 320 320 320 320 320 320 322 324 325 328 333 336 343 348 350 350 349 348 349 348 346 344 344
319 319 318 317 317 317 318 318 318 319 319 320 321 321 322 322 322 322 320 320 319 319 319 320 320 320 320 320 321 322 326 328 331 332 340 344 347 346 345 345 346 346 345 343
319 318 317 318 317 318 318 319 319 319 320 321 320 321 321 322 322 322 322 321 320 320 320 320 320 320 321 321 322 322 323 326 329 330 333 337 342 342 344 344 344 345 347 346
318 318 318 318 317 318 318 319 319 319 320 321 321 322 322 322 323 323 322 321 320 321 320 320 321 321 321 321 322 323 325 326 328 330 331 332 334 339 343 344 343 344 346 348
320 319 319 318 319 319 318 319 322 323 324 324 324 324 324 324 323 322 323 322 322 321 321 321 322 322 322 322 323 324 325 326 327 328 330 332 333 336 333 342 342 343 343 343
321 322 320 319 319 319 321 321 322 324 325 325 325 325 325 324 323 322 321 321 322 321 321 321 321 321 321 321 322 323 323 325 326 328 329 329 331 333 334 336 339 342 341 333
321 322 321 321 320 320 320 320 322 323 324 324 324 324 324 324 323 322 321 321 322 321 320 320 319 320 320 321 321 322 322 323 325 328 330 330 330 332 333 332 335 340 341 342
322 324 322 321 319 320 320 321 322 324 327 327 324 325 325 325 324 323 323 322 321 321 320 319 318 318 319 319 319 319 321 322 323 326 328 328 329 331 333 335 335 339 339 340
322 322 324 322 323 322 321 322 323 322 323 329 330 326 324 325 324 324 322 322 321 319 318 317 317 317 318 318 318 319 320 321 321 322 324 328 330 330 331 331 333 337 337 335
319 323 324 323 322 322 323 322 323 329 329 327 328 327 324 324 324 322 322 320 319 317 316 316 316 316 317 317 317 318 320 321 322 323 322 324 325 326 328 327 329 331 333 332
319 322 324 323 322 321 322 322 320 321 322 325 329 327 322 322 321 320 320 318 316 316 316 316 316 317 317 317 316 317 317 318 318 318 321 322 322 322 322 324 325 328 329 328
315 320 320 323 322 322 322 323 322 322 327 326 325 324 322 322 321 321 318 316 316 316 316 316 316 316 316 316 316 316 316 316 316 317 317 318 321 321 317 319 322 324 325 327
315 319 317 318 318 318 318 318 318 319 320 322 322 320 320 319 319 317 316 316 316 316 315 315 315 315 315 314 314 314 314 314 314 315 315 316 317 317 317 316 316 320 323 326
315 318 316 317 317 316 317 317 317 317 317 317 318 319 318 317 316 317 317 316 315 315 314 314 314 314 315 314 314 314 313 313 313 313 313 314 314 316 314 315 315 315 319 321
316 317 319 319 316 315 316 315 315 315 315 315 315 314 317 317 318 317 316 316 315 315 314 313 313 313 313 313 313 312 313 313 312 312 312 312 312 313 314 314 315 316 315 316
314 317 317 318 316 318 316 317 316 316 316 316 316 316 317 317 315 314 314 313 313 313 313 313 312 312 312 311 311 311 311 311 311 311 311 312 312 312 313 313 313 313 314 315
313 316 318 319 318 316 316 316 317 318 317 317 317 316 315 314 313 313 313 313 313 312 311 311 311 311 310 309 309 309 308 308 309 309 310 311 311 311 311 312 312 312 313 313
315 316 317 318 320 317 319 317 315 315 317 317 315 315 315 313 315 315 313 312 311 310 311 311 310 309 308 307 306 307 307 307 306 307 308 310 309 309 309 310 311 311 312 313
318 317 319 318 318 317 318 316 314 317 319 315 314 313 312 314 313 311 310 310 309 309 309 310 309 308 307 306 306 306 305 305 304 304 306 306 307 307 308 308 310 311 311 312
318 318 318 318 321 318 315 314 316 315 313 312 311 310 309 309 308 308 308 308 308 309 309 308 307 306 306 306 306 304 303 303 302 302 303 303 303 304 305 306 307 309 310 310
318 317 318 317 318 316 315 314 313 311 311 310 309 308 308 308 308 307 307 307 308 308 308 306 305 305 306 306 305 305 303 302 301 301 301 302 301 302 302 303 304 305 306 306
312 313 314 314 314 314 312 311 311 310 309 309 308 307 307 307 307 307 307 307 308 306 305 305 305 304 303 304 303 302 302 302 301 301 300 299 300 300 301 301 301 302 303 304
311 311 312 312 313 313 312 311 310 310 309 308 307 306 306 306 306 306 307 306 304 304 304 303 302 301 299 299 301 301 300 299 300 299 300 299 299 300 300 301 302 302 302 303
311 313 314 315 313 312 311 310 310 309 309 307 305 305 306 306 306 306 304 302 304 302 300 299 298 298 297 297 298 298 298 298 298 299 299 299 299 300 300 301 301 301 301 301
Wind_Speed
16 11 14 18 17 17 12 14 11 12 13 9 13 15 16 16 19 17 18 19 18 19 17 17 15 13 10 7 8 12 16 23 22 22 24 24 27 26 27 30 33 34 34 36
11 15 16 14 9 10 9 15 15 13 11 11 14 17 17 16 18 20 18 21 19 15 17 18 17 15 14 10 8 7 13 17 21 22 24 25 24 25 26 27 30 34 34 38
16 10 8 13 11 14 16 17 15 15 9 12 13 17 18 17 19 19 21 21 18 18 17 17 17 14 16 15 13 11 10 11 18 22 22 24 26 26 27 28 28 34 38 36
14 17 11 11 17 17 17 17 14 13 12 14 18 14 15 17 19 20 21 20 23 22 16 16 14 15 15 16 16 16 14 11 12 16 24 28 27 29 30 29 28 30 34 36
14 13 13 16 15 17 16 10 8 13 15 16 19 13 15 15 16 17 16 18 16 14 14 13 11 10 12 13 14 15 15 16 14 16 19 24 31 35 32 31 30 30 30 32
18 8 6 12 14 15 14 11 12 15 14 16 19 18 16 14 12 14 13 15 15 14 6 6 10 12 14 12 12 12 14 18 18 18 19 22 30 31 31 33 34 30 28 29
17 18 16 13 12 10 12 13 11 14 14 15 19 18 14 11 4 8 5 6 3 3 6 9 8 11 10 11 10 11 11 14 16 16 18 20 25 28 33 36 36 32 32 35
13 13 17 15 18 17 17 18 14 18 15 16 8 9 7 4 4 4 3 1 4 3 6 7 10 11 13 12 13 13 15 16 16 17 19 20 22 23 26 29 35 35 39 44
12 19 21 12 10 17 20 20 20 22 21 17 18 26 22 14 17 16 14 7 7 4 7 10 11 13 14 16 16 15 16 15 15 17 17 19 21 23 27 30 31 32 38 33
10 12 17 10 10 15 18 13 10 12 16 23 17 19 13 9 2 5 10 8 7 6 12 17 19 18 17 19 20 20 17 16 17 17 17 16 17 20 24 25 31 32 30 39
17 11 14 11 10 17 14 16 18 16 15 10 14 11 9 6 1 5 4 5 8 12 16 21 24 22 19 18 19 18 17 17 15 15 15 15 13 14 18 24 27 27 29 36
2 5 13 22 20 19 21 17 20 10 9 14 13 16 10 5 10 3 8 11 13 15 18 20 21 22 21 20 18 18 16 14 14 11 11 8 10 9 12 12 17 18 18 20
6 5 10 13 18 22 14 17 15 15 16 21 16 12 4 9 7 8 11 17 13 15 15 16 20 17 16 15 15 17 18 15 12 13 13 10 7 10 10 12 15 13 17 17
5 13 16 15 15 3 9 12 13 10 6 11 18 21 16 11 9 13 23 12 12 13 14 14 16 17 14 13 14 16 18 17 18 16 15 14 13 9 10 9 12 15 17 16
3 9 17 18 19 21 20 18 17 19 18 19 19 21 20 17 17 11 11 10 10 14 16 15 15 16 17 17 17 18 19 20 20 19 19 18 16 18 24 23 27 17 13 15
6 10 11 17 18 18 18 19 20 22 22 22 22 22 20 24 6 9 9 12 12 15 18 20 22 19 16 16 19 21 22 24 23 23 23 22 20 19 16 28 27 30 18 12
4 7 4 12 7 11 14 18 19 19 20 21 20 16 10 3 4 8 14 16 17 20 24 19 23 20 21 22 24 27 28 27 27 27 27 26 24 23 21 17 27 34 29 22
9 11 5 8 8 11 6 3 5 7 11 9 6 7 10 9 12 13 19 22 24 19 19 22 24 25 26 28 30 31 31 30 31 32 31 29 27 27 26 23 21 26 35 34
19 15 5 4 8 11 14 4 4 4 7 6 10 4 5 12 19 22 21 11 17 22 26 27 27 27 29 30 29 31 31 30 34 35 35 33 30 29 28 27 26 26 27 30
14 17 10 4 5 6 5 5 4 4 8 8 8 9 14 20 13 12 23 25 27 28 29 31 31 32 31 32 31 34 38 37 37 39 41 35 32 32 31 30 30 29 28 29
3 4 9 12 8 6 4 1 4 7 3 12 15 17 19 15 17 28 29 30 30 33 33 32 35 37 36 33 29 31 36 38 36 41 38 40 36 35 36 35 34 33 32 32
2 5 6 8 5 6 3 2 5 5 12 14 16 19 21 24 27 29 31 32 33 35 36 36 36 39 37 35 36 33 36 38 41 37 37 35 36 38 35 31 32 32 35 34
3 5 3 3 2 4 3 4 6 9 12 16 20 22 24 27 30 31 33 36 37 37 38 38 39 37 36 37 39 38 37 35 37 36 35 35 37 35 37 42 38 37 37 36
2 5 5 6 4 2 3 4 4 12 15 20 22 24 26 29 32 33 34 37 39 40 41 37 32 35 41 41 42 43 34 36 37 39 41 41 38 37 34 36 40 40 41 42
10 11 10 11 3 9 5 10 14 19 20 21 25 27 29 31 32 34 37 39 39 40 38 38 40 42 46 44 39 37 37 34 31 37 35 34 34 35 37 37 37 37 40 39
5 5 4 5 7 8 14 18 21 22 25 28 28 30 30 31 33 35 37 38 37 40 42 41 43 38 38 37 35 34 29 31 32 34 33 34 34 33 32 35 38 41 44 44
Wind_Direction
204 218 215 223 224 252 310 284 274 232 232 203 237 253 238 233 232 233 227 234 237 237 238 236 238 246 253 262 251 233 231 220 231 224 225 229 227 228 229 228 228 231 236 224
199 233 249 232 254 252 260 250 250 263 256 245 259 252 248 246 243 245 229 236 234 234 239 242 243 247 259 264 264 262 244 236 227 231 231 230 236 235 233 232 231 231 231 233
241 236 217 259 222 239 235 245 245 252 262 213 251 261 257 254 249 242 246 243 247 248 252 253 249 248 262 268 267 267 270 259 242 235 238 239 234 237 235 234 231 230 231 228
241 248 231 246 234 222 242 221 249 267 249 252 231 263 251 227 227 224 228 238 243 242 234 234 244 244 252 266 267 271 279 278 273 258 242 239 241 240 238 238 238 236 242 236
240 224 248 229 239 227 246 270 254 245 254 266 256 254 260 245 246 228 219 242 237 237 246 250 239 272 277 268 268 269 277 283 278 265 251 248 246 246 248 246 244 239 237 249
260 280 266 254 230 242 253 256 252 249 249 246 245 250 256 256 233 196 229 234 234 241 235 282 279 285 283 279 279 282 280 280 282 277 268 255 246 245 249 246 243 238 234 237
237 246 250 224 259 225 234 225 246 237 229 243 241 237 246 251 189 222 226 251 29 344 284 274 290 292 301 296 294 294 290 289 290 284 278 269 265 256 250 246 244 244 238 227
277 263 215 222 240 258 228 225 248 268 269 272 296 267 242 208 231 267 237 300 287 268 307 301 294 297 298 298 300 301 301 297 293 290 284 276 270 266 261 258 247 244 241 237
257 254 271 252 289 218 243 262 277 283 283 279 279 285 279 184 193 203 227 212 225 227 288 292 296 300 299 297 294 297 301 306 299 298 292 281 275 265 259 251 254 249 234 237
294 302 266 265 261 260 272 281 276 266 270 259 256 263 272 307 27 222 209 207 228 281 299 302 301 295 294 296 292 290 287 303 304 300 301 293 281 273 269 262 251 245 238 232
277 268 268 260 253 266 242 241 256 265 268 270 277 271 78 284 162 277 170 252 291 296 302 305 299 291 287 293 300 299 291 289 295 305 308 305 293 274 268 263 254 254 244 230
324 277 256 260 263 241 270 265 240 247 258 264 280 273 289 104 276 187 268 283 297 311 304 296 294 288 291 293 292 302 304 290 294 312 324 327 299 281 277 273 258 248 237 225
345 221 272 263 241 238 240 243 252 256 263 252 259 254 328 3 325 307 303 289 298 295 287 300 306 303 300 299 293 292 298 299 304 308 285 284 309 273 264 305 274 249 233 218
302 269 261 271 289 155 278 297 289 255 256 270 254 265 295 190 263 285 274 297 298 291 301 307 295 296 298 297 298 296 291 294 294 295 295 288 266 266 282 328 316 269 248 223
220 253 256 264 271 282 279 269 255 261 262 263 279 288 288 287 291 301 311 298 292 305 306 297 281 277 270 278 284 285 285 289 290 288 286 282 286 276 255 246 273 302 292 252
217 261 269 269 257 258 266 263 258 258 260 262 267 263 265 266 300 320 321 306 319 282 269 275 284 286 290 285 286 284 285 286 286 284 282 279 276 277 285 245 234 257 279 282
262 242 233 262 254 262 260 254 249 250 247 244 253 263 12 295 285 309 291 285 290 292 289 287 291 287 280 281 279 279 283 282 281 282 279 277 274 270 269 271 245 240 259 268
259 243 259 278 291 263 285 182 313 302 295 303 264 323 360 336 316 304 291 290 283 291 305 298 291 290 288 287 285 283 279 277 276 276 275 273 272 269 265 260 255 253 247 257
225 242 263 254 253 282 247 231 273 305 296 315 324 262 314 320 311 291 279 318 317 305 295 289 288 288 292 289 285 284 284 283 279 276 272 268 268 268 266 261 256 252 254 246
221 236 232 250 248 273 65 112 17 308 256 39 3 339 316 317 295 294 330 315 305 299 295 293 290 286 287 291 286 284 282 281 280 278 277 273 264 265 264 263 258 252 247 245
198 194 215 229 250 269 107 112 290 254 32 309 311 317 311 302 304 306 302 300 300 298 296 294 292 287 289 295 288 279 280 281 284 281 273 270 269 272 267 261 261 253 248 245
231 208 206 230 243 253 83 253 311 339 314 321 316 311 307 302 301 301 301 301 300 297 297 295 292 291 291 293 289 278 279 281 282 277 276 270 269 267 267 266 258 255 250 249
235 244 328 242 263 222 312 306 338 321 305 317 315 312 308 304 303 304 304 304 302 300 300 300 296 296 292 288 288 280 287 279 281 274 272 270 272 267 264 260 261 256 255 255
306 296 260 286 234 347 236 269 309 320 323 320 314 311 310 305 303 303 305 303 301 303 300 301 303 298 295 290 287 284 281 283 281 273 274 274 267 267 260 256 254 252 249 248
286 275 282 272 229 298 53 346 323 323 320 320 316 310 306 306 307 306 301 302 303 305 307 307 304 298 294 291 287 285 283 286 277 276 271 270 265 262 263 256 249 247 248 244
324 350 313 318 9 334 317 324 334 333 325 319 315 312 310 310 306 305 306 308 310 309 307 304 301 297 295 294 289 286 284 278 275 271 270 266 265 262 257 255 255 254 253 250